Location: ?
(35.4554°N, 139.3092°E)
Time: 22:46:36
(UTC+00:00)

BREEZE-M DEB (TANK) - Pass Details

Date: 21 April 2021
Orbit: 317 x 16593 km, 49.3° (Epoch: 10 May)

Event Time Altitude Azimuth Distance (km) Brightness Sun altitude
Exits shadow 18:41:38 20° 205° (SSW) 1,613 4.2 -16.0°
Maximum altitude 18:44:06 40° 144° (SE) 715 2.9 -15.6°
Drops below altitude 10° 18:46:26 10° 70° (ENE) 1,319 5.6 -15.1°
Sets 18:47:56 0° 61° (ENE) 2,058 7.2 -14.9°
